This demonstration page uses our WeatherBlox Daily Observations layout. Learn more.

Left ArrowRight Arrow

39.92423, -83.80882

Hourly Observations for June 25, 2015

Temp ( °F °C ) Dew Point ( °F °C ) Humidity (%) Winds ( mph kmh ) Pressure ( in mb ) Visibility ( mi km ) Precip ( " mm )
12:56 am 00:56 Clear 64 17.7 62 16.6 93 93 E 3 6 30.11 1020 9 14.48406 0 0
1:56 am 01:56 Partly Cloudy 64 17.7 63 17.2 97 97 NE 3 6 30.09 1019 8 12.87472 0 0
2:56 am 02:56 Mostly Cloudy 66 18.8 63 17.2 90 90 Calm 30.08 1019 9 14.48406 0 0
3:56 am 03:56 Mostly Clear 65 18.3 62 16.6 90 90 Calm 30.06 1018 9 14.48406 0 0
4:56 am 04:56 Clear 65 18.3 62 16.6 90 90 Calm 30.04 1017 9 14.48406 0 0
5:56 am 05:56 Partly Cloudy 65 18.3 61 16.1 87 87 SSE 6 9 30.05 1018 9 14.48406 0 0
6:42 am 06:42 Mostly Cloudy with Light Rain 64 18 63 17 94 94 E 3 6 30.09 1019 6 9.65604 0 0.0254
6:56 am 06:56 Mostly Cloudy 65 18.3 63 17.2 93 93 ESE 5 7 30.07 1018 7 11.26538 0 0.0254
7:56 am 07:56 Cloudy with Light Rain 66 18.8 63 17.2 90 90 N 7 11 30.08 1019 6 9.65604 0 0.0254
8:06 am 08:06 Cloudy with Light Rain 66 19 64 18 94 94 Calm 30.09 1019 5 8.0467 0.01 0.254
8:49 am 08:49 Cloudy with Light Rain 66 19 64 18 94 94 W 6 9 30.12 1020 3 4.82802 0.04 1.016
8:56 am 08:56 Cloudy with Light Rain 65 18.3 64 17.7 96 96 WSW 7 11 30.13 1020 3 4.82802 0.05 1.27
9:06 am 09:06 Cloudy with Light Rain 64 18 64 18 100 100 W 7 11 30.15 1021 2.5 4.02335 0.02 0.508
9:16 am 09:16 Mostly Cloudy with Light Rain 64 18 64 18 100 100 WSW 6 9 30.15 1021 2.5 4.02335 0.04 1.016
9:43 am 09:43 Cloudy with Light Rain 64 18 64 18 100 100 SW 7 11 30.18 1022 1.75 2.816345 0.11 2.794
9:56 am 09:56 Cloudy with Rain 64 17.7 64 17.7 100 100 SW 7 11 30.15 1021 1.75 2.816345 0.16 4.064
10:01 am 10:01 Cloudy with Mist and Fog 64 18 64 18 100 100 SW 7 11 30.15 1021 1.75 2.816345 0.01 0.254
10:11 am 10:11 Cloudy with Mist and Fog 64 18 64 18 100 100 S 6 9 30.15 1021 2 3.21868 0.04 1.016
10:22 am 10:22 Cloudy with Light Rain 64 18 64 18 100 100 SSE 10 17 30.12 1020 3 4.82802 0.06 1.524
10:28 am 10:28 Cloudy with Light Thunderstorms 64 18 64 18 100 100 S 6 9 30.12 1020 2.5 4.02335 0.08 2.032
10:42 am 10:42 Cloudy with Mist and Fog 64 18 64 18 100 100 S 5 7 30.12 1020 1.75 2.816345 0.12 3.048
10:56 am 10:56 Cloudy with Light Rain 65 18.3 65 18.3 100 100 SSE 8 13 30.07 1018 2.5 4.02335 0.15 3.81
11:03 am 11:03 Cloudy with Light Rain 64 18 64 18 100 100 SSE 8 13 30.09 1019 4 6.43736 0 0.0254
11:43 am 11:43 Partly Cloudy with Light Rain 66 19 66 19 100 100 SE 12 19 30 1016 6 9.65604 0.02 0.508
11:56 am 11:56 Sunny with Light Rain 66 18.8 66 18.8 100 100 SSE 8 13 30.04 1017 7 11.26538 0.02 0.508
12:30 pm 12:30 Partly Cloudy with Mist and Fog 66 19 64 18 94 94 S 8 13 30.03 1017 5 8.0467 0 0.0254
12:56 pm 12:56 Mostly Cloudy 66 18.8 65 18.3 97 97 S 6 9 30.04 1017 7 11.26538 0 0.0254
1:56 pm 13:56 Mostly Cloudy 70 21.1 66 18.8 87 87 SSE 8 13 30.02 1017 9 14.48406 0 0
2:33 pm 14:33 Mostly Sunny 75 24 66 19 74 74 SSW 9 15 30 1016 9 14.48406 0 0
2:56 pm 14:56 Partly Cloudy 75 23.8 67 19.4 76 76 SSW 9 15 30 1016 7 11.26538 0 0
3:08 pm 15:08 Mostly Cloudy 77 25 68 20 74 74 SW 10 17 29.97 1015 8 12.87472 0 0
3:56 pm 15:56 Cloudy 79 26.1 69 20.5 71 71 SSW 8 13 29.98 1015 8 12.87472 0 0
4:56 pm 16:56 Cloudy 78 25.5 69 20.5 74 74 WSW 8 13 29.98 1015 9 14.48406 0 0
5:56 pm 17:56 Cloudy 79 26.1 67 19.4 67 67 WNW 6 9 29.96 1015 8 12.87472 0 0
6:56 pm 18:56 Cloudy 80 26.6 68 20 67 67 W 6 9 29.95 1014 9 14.48406 0 0
7:56 pm 19:56 Cloudy 78 25.5 68 20 72 72 W 6 9 29.95 1014 8 12.87472 0 0
8:56 pm 20:56 Cloudy 75 23.8 70 21.1 85 85 Calm 29.94 1014 8 12.87472 0 0
9:56 pm 21:56 Cloudy 71 21.6 68 20 91 91 Calm 29.96 1015 9 14.48406 0 0
10:56 pm 22:56 Cloudy 69 20.5 68 20 97 97 ESE 3 6 29.96 1015 8 12.87472 0 0
11:56 pm 23:56 Cloudy 69 20.5 69 20.5 100 100 ESE 5 7 29.95 1014 9 14.48406 0 0

Powered by AerisWeather